Time,TemperatureF,DewpointF,PressureIn,WindDirection,WindDirectionDegrees,WindSpeedMPH,WindSpeedGustMPH,Humidity,HourlyPrecipIn,Conditions,Clouds,dailyrainin,SoftwareType,DateUTC
2013-02-11 00:00:00,41.8,39.6,30.35,West,270,0.0,1.5,91,0.00,,,0.00,NetBSD+Arduino,2013-02-11 08:00:00,
2013-02-11 00:10:00,41.8,39.8,30.35,West,270,0.0,1.5,92,0.00,,,0.00,NetBSD+Arduino,2013-02-11 08:10:00,
2013-02-11 00:15:00,41.8,39.7,30.35,NW,315,0.0,0.0,92,0.00,,,0.00,NetBSD+Arduino,2013-02-11 08:15:00,
2013-02-11 00:20:00,41.8,39.8,30.35,NW,315,1.5,3.0,92,0.00,,,0.00,NetBSD+Arduino,2013-02-11 08:20:00,
2013-02-11 00:25:00,41.8,39.8,30.35,North,0,0.0,1.5,92,0.00,,,0.00,NetBSD+Arduino,2013-02-11 08:25:00,
2013-02-11 00:30:00,41.8,39.8,30.36,West,270,0.4,1.5,92,0.00,,,0.00,NetBSD+Arduino,2013-02-11 08:30:00,
2013-02-11 00:35:00,41.8,39.8,30.36,North,0,0.0,3.0,92,0.00,,,0.00,NetBSD+Arduino,2013-02-11 08:35:00,
2013-02-11 00:45:00,41.7,39.6,30.36,NW,315,0.0,1.5,92,0.00,,,0.00,NetBSD+Arduino,2013-02-11 08:45:00,
2013-02-11 00:50:00,41.7,39.6,30.36,NW,315,1.1,1.5,92,0.00,,,0.00,NetBSD+Arduino,2013-02-11 08:50:00,
2013-02-11 00:55:00,41.6,39.5,30.35,West,270,0.0,3.0,92,0.00,,,0.00,NetBSD+Arduino,2013-02-11 08:55:00,
2013-02-11 01:00:00,41.6,39.4,30.35,West,270,0.0,0.0,91,0.00,,,0.00,NetBSD+Arduino,2013-02-11 09:00:00,
2013-02-11 01:05:00,41.5,39.2,30.36,NW,315,0.0,0.0,91,0.00,,,0.00,NetBSD+Arduino,2013-02-11 09:05:00,
2013-02-11 01:15:00,41.5,39.1,30.36,NW,315,0.0,0.0,91,0.00,,,0.00,NetBSD+Arduino,2013-02-11 09:15:00,
2013-02-11 01:20:00,41.5,38.9,30.36,NW,315,0.0,0.0,90,0.00,,,0.00,NetBSD+Arduino,2013-02-11 09:20:00,
2013-02-11 01:30:00,41.3,38.7,30.36,NW,315,0.0,0.0,90,0.00,,,0.00,NetBSD+Arduino,2013-02-11 09:30:00,
2013-02-11 01:35:00,41.3,38.8,30.35,NW,315,0.0,1.5,90,0.00,,,0.00,NetBSD+Arduino,2013-02-11 09:35:00,
2013-02-11 01:45:00,41.2,38.6,30.35,South,180,0.0,1.5,90,0.00,,,0.00,NetBSD+Arduino,2013-02-11 09:45:00,
2013-02-11 01:50:00,41.3,38.9,30.35,South,180,1.1,1.5,90,0.00,,,0.00,NetBSD+Arduino,2013-02-11 09:50:00,
2013-02-11 01:55:00,41.3,39.1,30.35,South,180,2.2,6.0,91,0.00,,,0.00,NetBSD+Arduino,2013-02-11 09:55:00,
2013-02-11 02:00:00,41.2,39.4,30.35,SW,225,0.4,4.5,93,0.00,,,0.00,NetBSD+Arduino,2013-02-11 10:00:00,
2013-02-11 02:05:00,41.2,39.4,30.35,South,180,1.9,3.0,93,0.00,,,0.00,NetBSD+Arduino,2013-02-11 10:05:00,
2013-02-11 02:10:00,41.0,39.5,30.35,South,180,1.5,4.5,94,0.00,,,0.00,NetBSD+Arduino,2013-02-11 10:10:00,
2013-02-11 02:15:00,41.0,39.4,30.35,South,180,0.5,4.5,94,0.00,,,0.00,NetBSD+Arduino,2013-02-11 10:15:00,
2013-02-11 02:20:00,40.9,39.4,30.35,East,90,0.6,4.5,94,0.00,,,0.00,NetBSD+Arduino,2013-02-11 10:20:00,
2013-02-11 02:30:00,40.8,39.5,30.35,South,180,0.0,1.5,94,0.00,,,0.00,NetBSD+Arduino,2013-02-11 10:30:00,
2013-02-11 02:35:00,40.8,39.5,30.35,South,180,0.3,3.0,95,0.00,,,0.00,NetBSD+Arduino,2013-02-11 10:35:00,
2013-02-11 02:40:00,40.7,39.5,30.35,South,180,1.5,3.0,95,0.00,,,0.00,NetBSD+Arduino,2013-02-11 10:40:00,
2013-02-11 02:45:00,40.6,39.5,30.35,South,180,0.0,1.5,95,0.00,,,0.00,NetBSD+Arduino,2013-02-11 10:45:00,
2013-02-11 02:50:00,40.5,39.3,30.35,South,180,0.0,0.0,95,0.00,,,0.00,NetBSD+Arduino,2013-02-11 10:50:00,
2013-02-11 03:00:00,40.4,39.5,30.35,SW,225,0.0,0.0,96,0.00,,,0.00,NetBSD+Arduino,2013-02-11 11:00:00,
2013-02-11 03:10:00,40.3,39.4,30.35,SW,225,0.0,0.0,96,0.00,,,0.00,NetBSD+Arduino,2013-02-11 11:10:00,
2013-02-11 03:15:00,40.3,39.3,30.34,SW,225,0.0,0.0,96,0.00,,,0.00,NetBSD+Arduino,2013-02-11 11:15:00,
2013-02-11 03:20:00,40.3,39.3,30.35,West,270,1.1,1.5,96,0.00,,,0.00,NetBSD+Arduino,2013-02-11 11:20:00,
2013-02-11 03:30:00,40.3,39.2,30.34,West,270,0.0,1.5,95,0.00,,,0.00,NetBSD+Arduino,2013-02-11 11:30:00,
2013-02-11 03:35:00,40.4,39.2,30.34,West,270,0.0,1.5,95,0.00,,,0.00,NetBSD+Arduino,2013-02-11 11:35:00,
2013-02-11 03:40:00,40.3,39.3,30.34,West,270,0.0,1.5,96,0.00,,,0.00,NetBSD+Arduino,2013-02-11 11:40:00,
2013-02-11 03:45:00,40.3,39.3,30.34,West,270,0.0,0.0,96,0.00,,,0.00,NetBSD+Arduino,2013-02-11 11:45:00,
2013-02-11 03:50:00,40.2,39.2,30.34,NW,315,1.0,1.5,96,0.00,,,0.00,NetBSD+Arduino,2013-02-11 11:50:00,
2013-02-11 03:55:00,40.2,39.1,30.34,NW,315,0.9,1.5,95,0.00,,,0.00,NetBSD+Arduino,2013-02-11 11:55:00,
2013-02-11 04:00:00,40.2,39.1,30.34,West,270,0.0,1.5,95,0.00,,,0.00,NetBSD+Arduino,2013-02-11 12:00:00,
2013-02-11 04:05:00,40.2,39.0,30.33,SW,225,0.0,3.0,95,0.00,,,0.00,NetBSD+Arduino,2013-02-11 12:05:00,
2013-02-11 04:10:00,40.2,38.9,30.34,NW,315,0.3,1.5,95,0.00,,,0.00,NetBSD+Arduino,2013-02-11 12:10:00,
2013-02-11 04:15:00,40.3,39.0,30.34,NW,315,0.0,1.5,94,0.00,,,0.00,NetBSD+Arduino,2013-02-11 12:15:00,
2013-02-11 04:20:00,40.3,39.0,30.35,West,270,0.0,0.0,94,0.00,,,0.00,NetBSD+Arduino,2013-02-11 12:20:00,
2013-02-11 04:25:00,40.3,39.0,30.35,NW,315,0.0,0.0,94,0.00,,,0.00,NetBSD+Arduino,2013-02-11 12:25:00,
2013-02-11 04:30:00,40.3,39.1,30.35,West,270,0.0,0.0,95,0.00,,,0.00,NetBSD+Arduino,2013-02-11 12:30:00,
2013-02-11 04:35:00,40.3,39.2,30.35,West,270,0.0,0.0,95,0.00,,,0.00,NetBSD+Arduino,2013-02-11 12:35:00,
2013-02-11 04:40:00,40.3,39.2,30.35,West,270,0.0,0.0,95,0.00,,,0.00,NetBSD+Arduino,2013-02-11 12:40:00,
2013-02-11 04:45:00,40.2,39.0,30.35,West,270,0.0,0.0,95,0.00,,,0.00,NetBSD+Arduino,2013-02-11 12:45:00,
2013-02-11 04:50:00,40.2,38.9,30.35,West,270,0.0,0.0,94,0.00,,,0.00,NetBSD+Arduino,2013-02-11 12:50:00,
2013-02-11 04:55:00,40.3,39.0,30.35,North,0,0.0,0.0,94,0.00,,,0.00,NetBSD+Arduino,2013-02-11 12:55:00,
2013-02-11 05:05:00,40.2,38.9,30.35,South,180,0.0,0.0,94,0.00,,,0.00,NetBSD+Arduino,2013-02-11 13:05:00,
2013-02-11 05:10:00,40.2,38.8,30.35,South,180,0.0,0.0,94,0.00,,,0.00,NetBSD+Arduino,2013-02-11 13:10:00,
2013-02-11 05:15:00,40.2,38.8,30.35,SW,225,0.0,0.0,94,0.00,,,0.00,NetBSD+Arduino,2013-02-11 13:15:00,
2013-02-11 08:00:00,40.3,39.6,30.34,South,180,1.5,4.5,97,0.00,,,0.00,NetBSD+Arduino,2013-02-11 16:00:00,
2013-02-11 08:05:00,40.3,39.5,30.34,South,180,1.5,4.5,96,0.00,,,0.00,NetBSD+Arduino,2013-02-11 16:05:00,
2013-02-11 08:10:00,40.3,39.4,30.34,South,180,0.3,3.0,96,0.00,,,0.00,NetBSD+Arduino,2013-02-11 16:10:00,
2013-02-11 08:15:00,40.3,39.4,30.34,South,180,0.0,4.5,96,0.00,,,0.00,NetBSD+Arduino,2013-02-11 16:15:00,
2013-02-11 08:20:00,40.3,39.4,30.34,South,180,0.5,3.0,96,0.00,,,0.00,NetBSD+Arduino,2013-02-11 16:20:00,
2013-02-11 08:25:00,40.4,39.5,30.35,NW,315,0.0,3.0,96,0.00,,,0.00,NetBSD+Arduino,2013-02-11 16:25:00,
2013-02-11 08:30:00,40.5,39.5,30.34,South,180,0.0,3.0,96,0.00,,,0.00,NetBSD+Arduino,2013-02-11 16:30:00,
2013-02-11 08:35:00,40.5,39.5,30.35,South,180,0.0,0.0,96,0.00,,,0.00,NetBSD+Arduino,2013-02-11 16:35:00,
2013-02-11 08:40:00,40.5,39.5,30.35,East,90,0.0,0.0,96,0.00,,,0.00,NetBSD+Arduino,2013-02-11 16:40:00,
2013-02-11 08:45:00,40.5,39.6,30.35,East,90,2.0,3.0,96,0.00,,,0.00,NetBSD+Arduino,2013-02-11 16:45:00,
2013-02-11 08:50:00,40.5,39.7,30.35,North,0,0.0,3.0,97,0.02,,,0.02,NetBSD+Arduino,2013-02-11 16:50:00,
2013-02-11 08:55:00,40.6,39.9,30.35,South,180,0.7,3.0,97,0.02,,,0.02,NetBSD+Arduino,2013-02-11 16:55:00,
2013-02-11 09:00:00,40.6,39.9,30.35,South,180,0.0,3.0,97,0.02,,,0.02,NetBSD+Arduino,2013-02-11 17:00:00,
2013-02-11 09:05:00,40.6,39.9,30.35,South,180,0.7,3.0,97,0.02,,,0.02,NetBSD+Arduino,2013-02-11 17:05:00,
2013-02-11 09:10:00,40.5,39.7,30.35,North,0,0.0,3.0,97,0.02,,,0.02,NetBSD+Arduino,2013-02-11 17:10:00,
2013-02-11 09:15:00,40.6,40.0,30.36,East,90,0.6,3.0,97,0.02,,,0.02,NetBSD+Arduino,2013-02-11 17:15:00,
2013-02-11 09:20:00,40.5,39.8,30.36,South,180,2.2,4.5,97,0.02,,,0.02,NetBSD+Arduino,2013-02-11 17:20:00,
2013-02-11 09:25:00,40.5,39.8,30.36,South,180,1.9,3.0,97,0.02,,,0.02,NetBSD+Arduino,2013-02-11 17:25:00,
2013-02-11 09:30:00,40.2,39.4,30.36,South,180,0.9,3.0,97,0.02,,,0.02,NetBSD+Arduino,2013-02-11 17:30:00,
2013-02-11 09:35:00,40.3,39.7,30.36,South,180,0.0,4.5,97,0.02,,,0.02,NetBSD+Arduino,2013-02-11 17:35:00,
2013-02-11 09:40:00,40.6,40.1,30.36,South,180,0.7,3.0,98,0.03,,,0.03,NetBSD+Arduino,2013-02-11 17:40:00,
2013-02-11 09:45:00,40.6,40.1,30.36,South,180,0.0,3.0,98,0.03,,,0.03,NetBSD+Arduino,2013-02-11 17:45:00,
2013-02-11 09:50:00,40.7,40.2,30.37,South,180,0.3,3.0,98,0.02,,,0.03,NetBSD+Arduino,2013-02-11 17:50:00,
2013-02-11 09:55:00,41.0,40.5,30.36,South,180,3.0,4.5,98,0.02,,,0.03,NetBSD+Arduino,2013-02-11 17:55:00,
2013-02-11 10:00:00,40.9,40.4,30.36,West,270,0.9,4.5,98,0.02,,,0.03,NetBSD+Arduino,2013-02-11 18:00:00,
2013-02-11 10:05:00,41.3,40.8,30.37,South,180,2.2,4.5,98,0.02,,,0.03,NetBSD+Arduino,2013-02-11 18:05:00,
2013-02-11 10:10:00,41.2,40.7,30.37,South,180,0.0,3.0,98,0.02,,,0.03,NetBSD+Arduino,2013-02-11 18:10:00,
2013-02-11 10:15:00,41.5,41.1,30.36,South,180,2.4,4.5,98,0.02,,,0.03,NetBSD+Arduino,2013-02-11 18:15:00,
2013-02-11 10:20:00,41.5,41.1,30.36,South,180,3.4,4.5,98,0.02,,,0.03,NetBSD+Arduino,2013-02-11 18:20:00,
2013-02-11 10:25:00,41.3,40.6,30.37,NE,45,1.5,4.5,97,0.02,,,0.03,NetBSD+Arduino,2013-02-11 18:25:00,
2013-02-11 10:30:00,41.3,40.7,30.36,South,180,1.1,4.5,97,0.02,,,0.03,NetBSD+Arduino,2013-02-11 18:30:00,
2013-02-11 10:35:00,41.7,41.2,30.37,South,180,1.5,4.5,98,0.02,,,0.03,NetBSD+Arduino,2013-02-11 18:35:00,
2013-02-11 10:40:00,42.0,41.4,30.37,East,90,1.5,4.5,97,0.00,,,0.03,NetBSD+Arduino,2013-02-11 18:40:00,
2013-02-11 10:45:00,42.4,41.8,30.37,East,90,2.5,4.5,97,0.00,,,0.03,NetBSD+Arduino,2013-02-11 18:45:00,
2013-02-11 10:50:00,42.8,41.9,30.37,SE,135,0.7,4.5,96,0.00,,,0.03,NetBSD+Arduino,2013-02-11 18:50:00,
2013-02-11 10:55:00,42.2,41.2,30.37,South,180,1.5,4.5,96,0.00,,,0.03,NetBSD+Arduino,2013-02-11 18:55:00,
2013-02-11 11:00:00,42.5,41.7,30.37,South,180,1.5,4.5,97,0.00,,,0.03,NetBSD+Arduino,2013-02-11 19:00:00,
2013-02-11 11:10:00,42.8,42.0,30.36,South,180,0.7,4.5,97,0.00,,,0.03,NetBSD+Arduino,2013-02-11 19:10:00,
2013-02-11 11:15:00,42.5,41.4,30.36,East,90,3.0,4.5,95,0.00,,,0.03,NetBSD+Arduino,2013-02-11 19:15:00,
2013-02-11 11:20:00,42.5,41.4,30.36,South,180,3.4,6.0,95,0.00,,,0.03,NetBSD+Arduino,2013-02-11 19:20:00,
2013-02-11 11:30:00,43.0,42.0,30.36,South,180,1.0,4.5,96,0.00,,,0.03,NetBSD+Arduino,2013-02-11 19:30:00,
2013-02-11 11:35:00,43.0,42.0,30.36,SE,135,1.5,7.5,96,0.00,,,0.03,NetBSD+Arduino,2013-02-11 19:35:00,
2013-02-11 11:40:00,43.0,42.0,30.35,South,180,3.7,6.0,96,0.00,,,0.03,NetBSD+Arduino,2013-02-11 19:40:00,
2013-02-11 12:30:00,44.1,41.8,30.35,South,180,2.0,4.5,91,0.00,,,0.03,NetBSD+Arduino,2013-02-11 20:30:00,
2013-02-11 12:35:00,44.2,41.8,30.35,South,180,1.0,7.5,91,0.00,,,0.03,NetBSD+Arduino,2013-02-11 20:35:00,
2013-02-11 12:45:00,44.3,41.3,30.35,South,180,2.0,9.0,88,0.00,,,0.03,NetBSD+Arduino,2013-02-11 20:45:00,
2013-02-11 12:55:00,44.4,41.0,30.35,South,180,1.1,9.0,87,0.00,,,0.03,NetBSD+Arduino,2013-02-11 20:55:00,
2013-02-11 13:00:00,44.5,40.8,30.35,South,180,4.1,9.0,86,0.00,,,0.03,NetBSD+Arduino,2013-02-11 21:00:00,
2013-02-11 13:10:00,44.6,41.1,30.35,South,180,4.1,9.0,87,0.00,,,0.03,NetBSD+Arduino,2013-02-11 21:10:00,
2013-02-11 13:15:00,44.9,40.8,30.35,SW,225,0.0,4.5,85,0.00,,,0.03,NetBSD+Arduino,2013-02-11 21:15:00,
2013-02-11 13:20:00,45.1,41.2,30.35,South,180,2.5,7.5,86,0.00,,,0.03,NetBSD+Arduino,2013-02-11 21:20:00,
2013-02-11 13:25:00,45.3,41.5,30.35,South,180,0.4,6.0,86,0.00,,,0.03,NetBSD+Arduino,2013-02-11 21:25:00,
2013-02-11 13:35:00,45.4,41.2,30.34,South,180,3.0,6.0,84,0.00,,,0.03,NetBSD+Arduino,2013-02-11 21:35:00,
2013-02-11 13:40:00,45.5,40.7,30.34,SW,225,0.5,4.5,83,0.00,,,0.03,NetBSD+Arduino,2013-02-11 21:40:00,
2013-02-11 13:45:00,46.2,41.2,30.34,South,180,2.5,9.0,82,0.00,,,0.03,NetBSD+Arduino,2013-02-11 21:45:00,
2013-02-11 13:50:00,46.4,40.5,30.34,SW,225,0.0,6.0,79,0.00,,,0.03,NetBSD+Arduino,2013-02-11 21:50:00,
2013-02-11 13:55:00,46.7,40.8,30.34,SW,225,5.0,6.0,79,0.00,,,0.03,NetBSD+Arduino,2013-02-11 21:55:00,
2013-02-11 14:00:00,46.8,41.0,30.34,NW,315,0.4,6.0,80,0.00,,,0.03,NetBSD+Arduino,2013-02-11 22:00:00,
2013-02-11 14:05:00,46.9,41.0,30.34,SW,225,1.5,4.5,79,0.00,,,0.03,NetBSD+Arduino,2013-02-11 22:05:00,
2013-02-11 14:10:00,46.6,40.5,30.34,SW,225,0.5,4.5,79,0.00,,,0.03,NetBSD+Arduino,2013-02-11 22:10:00,
2013-02-11 14:15:00,46.5,40.8,30.33,South,180,3.0,6.0,80,0.00,,,0.03,NetBSD+Arduino,2013-02-11 22:15:00,
2013-02-11 14:25:00,46.5,40.4,30.34,South,180,4.0,6.0,79,0.00,,,0.03,NetBSD+Arduino,2013-02-11 22:25:00,
2013-02-11 14:30:00,46.4,40.7,30.33,South,180,3.0,6.0,80,0.00,,,0.03,NetBSD+Arduino,2013-02-11 22:30:00,
2013-02-11 14:35:00,46.8,40.8,30.33,South,180,3.0,7.5,79,0.00,,,0.03,NetBSD+Arduino,2013-02-11 22:35:00,
2013-02-11 14:40:00,46.7,40.8,30.33,East,90,3.0,7.5,79,0.00,,,0.03,NetBSD+Arduino,2013-02-11 22:40:00,
2013-02-11 14:45:00,46.3,40.7,30.33,South,180,2.6,6.0,80,0.00,,,0.03,NetBSD+Arduino,2013-02-11 22:45:00,
2013-02-11 14:50:00,46.2,40.0,30.33,SW,225,1.5,7.5,79,0.00,,,0.03,NetBSD+Arduino,2013-02-11 22:50:00,
2013-02-11 14:55:00,46.3,40.4,30.33,South,180,1.0,4.5,79,0.00,,,0.03,NetBSD+Arduino,2013-02-11 22:55:00,
2013-02-11 15:05:00,46.2,40.5,30.33,East,90,1.5,9.0,80,0.00,,,0.03,NetBSD+Arduino,2013-02-11 23:05:00,
2013-02-11 15:10:00,46.4,40.5,30.33,South,180,3.0,4.5,79,0.00,,,0.03,NetBSD+Arduino,2013-02-11 23:10:00,
2013-02-11 15:15:00,46.4,40.2,30.33,South,180,1.2,9.0,79,0.00,,,0.03,NetBSD+Arduino,2013-02-11 23:15:00,
2013-02-11 15:20:00,46.4,40.6,30.33,South,180,0.4,4.5,79,0.00,,,0.03,NetBSD+Arduino,2013-02-11 23:20:00,
2013-02-11 15:25:00,46.6,40.9,30.33,South,180,1.5,6.0,80,0.00,,,0.03,NetBSD+Arduino,2013-02-11 23:25:00,
2013-02-11 15:30:00,46.2,40.1,30.33,South,180,1.5,6.0,79,0.00,,,0.03,NetBSD+Arduino,2013-02-11 23:30:00,
2013-02-11 15:35:00,46.2,40.2,30.33,South,180,1.0,4.5,79,0.00,,,0.03,NetBSD+Arduino,2013-02-11 23:35:00,
2013-02-11 15:40:00,46.1,40.1,30.33,South,180,1.5,4.5,79,0.00,,,0.03,NetBSD+Arduino,2013-02-11 23:40:00,
2013-02-11 15:45:00,46.3,39.6,30.33,South,180,1.5,4.5,77,0.00,,,0.03,NetBSD+Arduino,2013-02-11 23:45:00,
2013-02-11 15:55:00,45.8,39.1,30.34,South,180,1.0,4.5,77,0.00,,,0.03,NetBSD+Arduino,2013-02-11 23:55:00,
2013-02-11 16:00:00,46.1,39.9,30.33,South,180,4.0,6.0,79,0.00,,,0.03,NetBSD+Arduino,2013-02-12 00:00:00,
2013-02-11 16:10:00,46.1,39.9,30.33,South,180,0.5,3.0,79,0.00,,,0.03,NetBSD+Arduino,2013-02-12 00:10:00,
2013-02-11 16:15:00,46.1,39.9,30.33,South,180,1.5,4.5,79,0.00,,,0.03,NetBSD+Arduino,2013-02-12 00:15:00,
2013-02-11 16:20:00,46.3,40.3,30.33,SW,225,2.2,7.5,79,0.00,,,0.03,NetBSD+Arduino,2013-02-12 00:20:00,
2013-02-11 16:25:00,46.2,40.1,30.33,SW,225,4.5,7.5,79,0.00,,,0.03,NetBSD+Arduino,2013-02-12 00:25:00,
2013-02-11 16:30:00,46.1,40.2,30.33,SW,225,0.5,9.0,79,0.00,,,0.03,NetBSD+Arduino,2013-02-12 00:30:00,
2013-02-11 16:35:00,46.1,40.1,30.33,West,270,0.0,4.5,79,0.00,,,0.03,NetBSD+Arduino,2013-02-12 00:35:00,
2013-02-11 16:40:00,45.9,39.9,30.33,West,270,2.5,4.5,79,0.00,,,0.03,NetBSD+Arduino,2013-02-12 00:40:00,
2013-02-11 16:45:00,45.9,40.0,30.34,SW,225,0.0,4.5,79,0.00,,,0.03,NetBSD+Arduino,2013-02-12 00:45:00,
2013-02-11 16:50:00,45.8,40.5,30.34,West,270,0.4,4.5,82,0.00,,,0.03,NetBSD+Arduino,2013-02-12 00:50:00,
2013-02-11 16:55:00,45.5,40.7,30.33,SW,225,1.5,4.5,83,0.00,,,0.03,NetBSD+Arduino,2013-02-12 00:55:00,
2013-02-11 17:00:00,45.4,40.6,30.33,South,180,1.5,6.0,83,0.00,,,0.03,NetBSD+Arduino,2013-02-12 01:00:00,
2013-02-11 17:10:00,45.4,41.2,30.34,SW,225,3.5,4.5,84,0.00,,,0.03,NetBSD+Arduino,2013-02-12 01:10:00,
2013-02-11 17:20:00,45.2,40.8,30.34,SW,225,0.0,4.5,84,0.00,,,0.03,NetBSD+Arduino,2013-02-12 01:20:00,
2013-02-11 17:25:00,45.2,40.9,30.34,SW,225,1.5,4.5,84,0.00,,,0.03,NetBSD+Arduino,2013-02-12 01:25:00,
2013-02-11 17:30:00,45.2,40.9,30.34,South,180,0.7,4.5,84,0.00,,,0.03,NetBSD+Arduino,2013-02-12 01:30:00,
2013-02-11 17:35:00,45.0,40.6,30.34,South,180,0.0,3.0,84,0.00,,,0.03,NetBSD+Arduino,2013-02-12 01:35:00,
2013-02-11 17:40:00,44.9,40.8,30.34,South,180,1.5,4.5,85,0.00,,,0.03,NetBSD+Arduino,2013-02-12 01:40:00,
2013-02-11 17:50:00,44.8,40.5,30.35,South,180,0.5,3.0,84,0.00,,,0.03,NetBSD+Arduino,2013-02-12 01:50:00,
2013-02-11 17:55:00,44.8,40.6,30.35,West,270,0.0,1.5,84,0.00,,,0.03,NetBSD+Arduino,2013-02-12 01:55:00,
2013-02-11 18:00:00,44.8,40.8,30.35,West,270,0.0,3.0,85,0.00,,,0.03,NetBSD+Arduino,2013-02-12 02:00:00,
2013-02-11 18:05:00,44.8,40.8,30.35,South,180,1.9,3.0,85,0.00,,,0.03,NetBSD+Arduino,2013-02-12 02:05:00,
2013-02-11 18:10:00,44.9,40.9,30.35,SW,225,1.1,3.0,85,0.00,,,0.03,NetBSD+Arduino,2013-02-12 02:10:00,
2013-02-11 18:20:00,44.9,41.0,30.35,SW,225,0.0,4.5,86,0.00,,,0.03,NetBSD+Arduino,2013-02-12 02:20:00,
2013-02-11 18:25:00,45.0,41.0,30.35,NW,315,0.4,1.5,85,0.00,,,0.03,NetBSD+Arduino,2013-02-12 02:25:00,
2013-02-11 18:35:00,45.1,41.3,30.35,West,270,0.0,0.0,86,0.00,,,0.03,NetBSD+Arduino,2013-02-12 02:35:00,
2013-02-11 18:45:00,44.9,41.3,30.35,South,180,1.5,3.0,86,0.00,,,0.03,NetBSD+Arduino,2013-02-12 02:45:00,
2013-02-11 18:50:00,44.9,41.3,30.35,South,180,1.0,4.5,86,0.00,,,0.03,NetBSD+Arduino,2013-02-12 02:50:00,
2013-02-11 18:55:00,44.8,41.3,30.35,SW,225,0.7,3.0,87,0.00,,,0.03,NetBSD+Arduino,2013-02-12 02:55:00,
2013-02-11 19:00:00,44.8,41.2,30.35,South,180,3.5,4.5,87,0.00,,,0.03,NetBSD+Arduino,2013-02-12 03:00:00,
2013-02-11 19:05:00,44.8,41.3,30.34,SW,225,1.0,6.0,87,0.00,,,0.03,NetBSD+Arduino,2013-02-12 03:05:00,
2013-02-11 19:10:00,44.8,41.3,30.34,South,180,0.0,3.0,87,0.00,,,0.03,NetBSD+Arduino,2013-02-12 03:10:00,
2013-02-11 19:15:00,44.9,41.4,30.34,SW,225,0.0,1.5,87,0.00,,,0.03,NetBSD+Arduino,2013-02-12 03:15:00,
2013-02-11 19:20:00,44.9,41.4,30.35,SW,225,0.5,1.5,87,0.00,,,0.03,NetBSD+Arduino,2013-02-12 03:20:00,
2013-02-11 19:25:00,44.9,41.4,30.34,SW,225,0.7,3.0,87,0.00,,,0.03,NetBSD+Arduino,2013-02-12 03:25:00,
2013-02-11 19:30:00,44.9,41.6,30.35,SW,225,0.0,1.5,88,0.00,,,0.03,NetBSD+Arduino,2013-02-12 03:30:00,
2013-02-11 19:35:00,44.9,41.5,30.35,South,180,0.0,3.0,87,0.00,,,0.03,NetBSD+Arduino,2013-02-12 03:35:00,
2013-02-11 19:40:00,44.9,41.5,30.35,North,0,0.0,1.5,87,0.00,,,0.03,NetBSD+Arduino,2013-02-12 03:40:00,
2013-02-11 19:45:00,44.9,41.5,30.35,SW,225,0.0,3.0,87,0.00,,,0.03,NetBSD+Arduino,2013-02-12 03:45:00,
2013-02-11 19:55:00,44.7,41.4,30.34,South,180,2.6,6.0,88,0.00,,,0.03,NetBSD+Arduino,2013-02-12 03:55:00,
2013-02-11 20:05:00,44.7,41.4,30.35,NW,315,0.0,3.0,88,0.00,,,0.03,NetBSD+Arduino,2013-02-12 04:05:00,
2013-02-11 20:10:00,44.7,41.5,30.35,NW,315,0.0,0.0,88,0.00,,,0.03,NetBSD+Arduino,2013-02-12 04:10:00,
2013-02-11 20:15:00,44.6,41.6,30.34,East,90,0.0,0.0,88,0.00,,,0.03,NetBSD+Arduino,2013-02-12 04:15:00,
2013-02-11 20:20:00,44.6,41.7,30.35,NE,45,0.0,1.5,89,0.00,,,0.03,NetBSD+Arduino,2013-02-12 04:20:00,
2013-02-11 20:25:00,44.6,41.5,30.35,South,180,0.0,3.0,88,0.00,,,0.03,NetBSD+Arduino,2013-02-12 04:25:00,
2013-02-11 20:31:00,44.5,41.4,30.35,South,180,2.0,3.0,88,0.00,,,0.03,NetBSD+Arduino,2013-02-12 04:31:00,
2013-02-11 20:40:00,44.4,41.4,30.34,South,180,2.0,4.5,88,0.00,,,0.03,NetBSD+Arduino,2013-02-12 04:40:00,
2013-02-11 20:45:00,44.3,41.2,30.33,East,90,1.0,4.5,88,0.00,,,0.03,NetBSD+Arduino,2013-02-12 04:45:00,
2013-02-11 20:50:00,44.2,41.3,30.33,South,180,0.7,6.0,89,0.00,,,0.03,NetBSD+Arduino,2013-02-12 04:50:00,
2013-02-11 21:00:00,44.1,41.1,30.33,South,180,2.6,6.0,89,0.00,,,0.03,NetBSD+Arduino,2013-02-12 05:00:00,
2013-02-11 21:05:00,44.1,41.2,30.33,East,90,1.9,6.0,89,0.00,,,0.03,NetBSD+Arduino,2013-02-12 05:05:00,
2013-02-11 21:10:00,44.1,41.2,30.33,South,180,1.0,4.5,89,0.00,,,0.03,NetBSD+Arduino,2013-02-12 05:10:00,
2013-02-11 21:15:00,44.1,41.2,30.33,South,180,0.7,4.5,89,0.00,,,0.03,NetBSD+Arduino,2013-02-12 05:15:00,
2013-02-11 21:20:00,44.0,41.2,30.33,South,180,2.6,6.0,89,0.00,,,0.03,NetBSD+Arduino,2013-02-12 05:20:00,
2013-02-11 21:25:00,43.9,41.2,30.34,South,180,3.5,4.5,90,0.00,,,0.03,NetBSD+Arduino,2013-02-12 05:25:00,
2013-02-11 21:30:00,44.0,41.2,30.34,SW,225,0.0,4.5,89,0.00,,,0.03,NetBSD+Arduino,2013-02-12 05:30:00,
2013-02-11 21:35:00,44.0,41.2,30.35,South,180,1.9,3.0,89,0.00,,,0.03,NetBSD+Arduino,2013-02-12 05:35:00,
2013-02-11 21:45:00,44.1,41.2,30.35,South,180,0.0,3.0,89,0.00,,,0.03,NetBSD+Arduino,2013-02-12 05:45:00,
2013-02-11 21:50:00,44.1,41.3,30.35,South,180,0.0,1.5,89,0.00,,,0.03,NetBSD+Arduino,2013-02-12 05:50:00,
2013-02-11 22:00:00,44.1,41.2,30.35,South,180,0.0,3.0,89,0.00,,,0.03,NetBSD+Arduino,2013-02-12 06:00:00,
2013-02-11 22:05:00,44.1,41.2,30.35,South,180,0.0,3.0,89,0.00,,,0.03,NetBSD+Arduino,2013-02-12 06:05:00,
2013-02-11 22:10:00,44.1,41.2,30.35,East,90,0.5,4.5,89,0.00,,,0.03,NetBSD+Arduino,2013-02-12 06:10:00,
2013-02-11 22:15:00,44.3,41.5,30.35,South,180,2.2,4.5,89,0.00,,,0.03,NetBSD+Arduino,2013-02-12 06:15:00,
2013-02-11 22:20:00,44.3,41.5,30.34,South,180,3.0,4.5,89,0.00,,,0.03,NetBSD+Arduino,2013-02-12 06:20:00,
2013-02-11 22:30:00,44.5,41.4,30.35,South,180,1.5,4.5,88,0.00,,,0.03,NetBSD+Arduino,2013-02-12 06:30:00,
2013-02-11 22:35:00,44.6,41.6,30.35,East,90,0.7,4.5,89,0.00,,,0.03,NetBSD+Arduino,2013-02-12 06:35:00,
2013-02-11 22:40:00,44.4,41.5,30.35,East,90,1.9,4.5,89,0.00,,,0.03,NetBSD+Arduino,2013-02-12 06:40:00,
2013-02-11 22:45:00,44.3,41.5,30.35,South,180,0.0,3.0,89,0.00,,,0.03,NetBSD+Arduino,2013-02-12 06:45:00,
2013-02-11 22:50:00,44.3,41.5,30.35,South,180,0.7,3.0,89,0.00,,,0.03,NetBSD+Arduino,2013-02-12 06:50:00,
2013-02-11 22:55:00,44.1,41.3,30.35,East,90,0.0,3.0,89,0.00,,,0.03,NetBSD+Arduino,2013-02-12 06:55:00,
2013-02-11 23:05:00,44.0,41.3,30.35,East,90,0.5,4.5,90,0.00,,,0.03,NetBSD+Arduino,2013-02-12 07:05:00,
2013-02-11 23:10:00,43.9,41.3,30.35,East,90,0.0,1.5,90,0.00,,,0.03,NetBSD+Arduino,2013-02-12 07:10:00,
2013-02-11 23:15:00,43.8,41.3,30.35,East,90,1.1,3.0,90,0.00,,,0.03,NetBSD+Arduino,2013-02-12 07:15:00,
2013-02-11 23:20:00,43.8,41.4,30.35,NE,45,0.4,1.5,91,0.00,,,0.03,NetBSD+Arduino,2013-02-12 07:20:00,
2013-02-11 23:25:00,43.6,41.3,30.35,NE,45,0.0,1.5,91,0.00,,,0.03,NetBSD+Arduino,2013-02-12 07:25:00,
2013-02-11 23:30:00,43.6,41.3,30.36,East,90,1.0,1.5,91,0.00,,,0.03,NetBSD+Arduino,2013-02-12 07:30:00,
2013-02-11 23:35:00,43.6,41.2,30.36,South,180,0.0,1.5,91,0.00,,,0.03,NetBSD+Arduino,2013-02-12 07:35:00,
2013-02-11 23:40:00,43.6,41.3,30.36,South,180,0.0,0.0,91,0.00,,,0.03,NetBSD+Arduino,2013-02-12 07:40:00,
2013-02-11 23:45:00,43.6,41.4,30.36,South,180,2.0,3.0,91,0.00,,,0.03,NetBSD+Arduino,2013-02-12 07:45:00,
2013-02-11 23:50:00,43.8,41.4,30.35,South,180,2.0,3.0,91,0.00,,,0.03,NetBSD+Arduino,2013-02-12 07:50:00,
2013-02-11 23:55:00,43.8,41.4,30.35,South,180,1.5,4.5,91,0.00,,,0.03,NetBSD+Arduino,2013-02-12 07:55:00,